TimePST,TemperatureF,Dew PointF,Humidity,Sea Level PressureIn,VisibilityMPH,Wind Direction,Wind SpeedMPH,Gust SpeedMPH,PrecipitationIn,Events,Conditions,WindDirDegrees,DateUTC
12:00 AM,42.8,37.4,81,29.91,6.0,WNW,4.6,-,N/A,,Haze,290,2013-02-23 08:00:00
12:31 AM,42.8,37.4,81,29.93,1.8,WNW,13.8,21.9,0.02,Rain,Rain,300,2013-02-23 08:31:00
12:53 AM,41.0,35.1,79,29.95,1.8,WNW,10.4,26.5,0.09,Rain,Rain,300,2013-02-23 08:53:00
1:04 AM,41.0,35.6,81,29.94,2.5,Variable,5.8,-,0.02,Rain,Light Rain,0,2013-02-23 09:04:00
1:26 AM,41.0,37.4,87,29.94,5.0,WSW,3.5,-,0.04,,Overcast,240,2013-02-23 09:26:00
1:42 AM,42.8,37.4,81,29.95,1.8,WNW,3.5,-,0.04,Rain,Light Rain,290,2013-02-23 09:42:00
1:53 AM,42.1,37.0,82,29.96,4.0,NW,9.2,19.6,0.06,,Haze,310,2013-02-23 09:53:00
2:44 AM,42.8,37.4,81,29.98,2.0,WNW,11.5,20.7,0.02,Rain,Light Rain,300,2013-02-23 10:44:00
2:49 AM,42.8,37.4,81,29.98,4.0,WNW,13.8,19.6,0.02,Rain,Light Rain,300,2013-02-23 10:49:00
2:53 AM,43.0,37.0,80,29.99,5.0,WNW,10.4,19.6,0.02,,Haze,290,2013-02-23 10:53:00
3:53 AM,44.1,36.0,73,30.01,4.0,Variable,5.8,-,N/A,,Haze,0,2013-02-23 11:53:00
4:15 AM,42.8,35.6,76,30.02,1.8,NNW,12.7,26.5,0.01,Rain,Rain,330,2013-02-23 12:15:00
4:24 AM,42.8,35.6,76,30.02,3.0,NW,9.2,17.3,0.02,Rain,Light Rain,310,2013-02-23 12:24:00
4:53 AM,43.0,36.0,76,30.04,4.0,WNW,6.9,-,0.02,,Haze,300,2013-02-23 12:53:00
5:53 AM,43.0,35.1,74,30.07,4.0,NW,8.1,16.1,N/A,,Haze,310,2013-02-23 13:53:00
6:53 AM,43.0,35.1,74,30.10,4.0,Variable,5.8,-,0.00,,Haze,0,2013-02-23 14:53:00
7:53 AM,44.1,35.1,71,30.14,3.0,WNW,13.8,20.7,N/A,,Haze,300,2013-02-23 15:53:00
8:53 AM,45.0,33.1,63,30.18,3.0,Variable,3.5,-,N/A,,Haze,0,2013-02-23 16:53:00
9:53 AM,46.0,35.1,66,30.20,3.0,WNW,8.1,-,N/A,,Haze,300,2013-02-23 17:53:00
10:53 AM,46.9,34.0,61,30.24,3.0,WNW,13.8,19.6,N/A,,Haze,290,2013-02-23 18:53:00
11:53 AM,46.4,33.8,62,30.24,3.0,NW,13.8,20.7,N/A,,Haze,310,2013-02-23 19:53:00
12:53 PM,48.9,34.0,56,30.26,4.0,WNW,12.7,25.3,N/A,,Haze,290,2013-02-23 20:53:00
1:53 PM,48.9,33.1,54,30.27,4.0,WNW,16.1,24.2,N/A,,Haze,290,2013-02-23 21:53:00
2:53 PM,48.9,33.1,54,30.30,4.0,West,16.1,25.3,N/A,,Haze,280,2013-02-23 22:53:00
3:53 PM,46.9,34.0,61,30.30,4.0,West,13.8,18.4,N/A,,Haze,270,2013-02-23 23:53:00
4:42 PM,46.4,35.6,66,30.31,4.0,West,9.2,-,N/A,,Haze,270,2013-02-24 00:42:00
4:53 PM,46.0,34.0,63,30.32,4.0,West,8.1,-,N/A,,Haze,280,2013-02-24 00:53:00
5:16 PM,44.6,33.8,66,30.32,4.0,West,9.2,-,N/A,,Haze,270,2013-02-24 01:16:00
5:53 PM,44.1,33.1,65,30.32,4.0,West,5.8,-,N/A,,Haze,280,2013-02-24 01:53:00
6:53 PM,44.1,34.0,68,30.35,4.0,NW,9.2,-,N/A,,Haze,310,2013-02-24 02:53:00
7:40 PM,42.8,35.6,76,30.35,3.0,Variable,3.5,-,0.01,Rain,Light Rain,0,2013-02-24 03:40:00
7:53 PM,42.8,37.4,81,30.35,4.0,West,3.5,-,N/A,Rain,Light Rain,280,2013-02-24 03:53:00
8:29 PM,42.8,35.6,76,30.35,5.0,WSW,4.6,-,0.00,,Haze,250,2013-02-24 04:29:00
8:53 PM,42.1,36.0,79,30.36,5.0,Calm,Calm,-,0.00,,Haze,0,2013-02-24 04:53:00
9:53 PM,41.0,37.0,86,30.37,5.0,Calm,Calm,-,N/A,,Overcast,0,2013-02-24 05:53:00
10:53 PM,41.0,37.0,86,30.36,4.0,Calm,Calm,-,N/A,,Overcast,0,2013-02-24 06:53:00
11:53 PM,39.9,36.0,86,30.36,5.0,Calm,Calm,-,N/A,,Overcast,0,2013-02-24 07:53:00